TimeCST,TemperatureF,Dew PointF,Humidity,Sea Level PressureIn,VisibilityMPH,Wind Direction,Wind SpeedMPH,Gust SpeedMPH,PrecipitationIn,Events,Conditions,WindDirDegrees,DateUTC
12:13 AM,-25.6,-32.8,69,29.98,10.0,Calm,Calm,-,N/A,,Clear,0,2013-02-04 06:13:00
12:33 AM,-25.6,-32.8,69,29.98,10.0,Calm,Calm,-,N/A,,Clear,0,2013-02-04 06:33:00
12:53 AM,-25.6,-34.6,63,29.98,10.0,Calm,Calm,-,N/A,,Clear,0,2013-02-04 06:53:00
1:13 AM,-25.6,-32.8,69,29.98,10.0,Calm,Calm,-,N/A,,Clear,0,2013-02-04 07:13:00
1:53 AM,-27.4,-34.6,69,29.98,10.0,Calm,Calm,-,N/A,,Clear,0,2013-02-04 07:53:00
2:13 AM,-29.2,-36.4,68,29.98,10.0,Calm,Calm,-,N/A,,Clear,0,2013-02-04 08:13:00
2:33 AM,-29.2,-36.4,68,29.98,10.0,Calm,Calm,-,N/A,,Clear,0,2013-02-04 08:33:00
2:53 AM,-29.2,-36.4,68,29.98,10.0,Calm,Calm,-,N/A,,Clear,0,2013-02-04 08:53:00
3:13 AM,-29.2,-36.4,68,29.98,10.0,Calm,Calm,-,N/A,,Clear,0,2013-02-04 09:13:00
5:13 AM,-32.8,-41.8,62,29.98,10.0,Calm,Calm,-,N/A,,Clear,0,2013-02-04 11:13:00
5:33 AM,-32.8,-41.8,62,29.98,10.0,Calm,Calm,-,N/A,,Clear,0,2013-02-04 11:33:00
5:53 AM,-32.8,-41.8,62,29.98,10.0,Calm,Calm,-,N/A,,Clear,0,2013-02-04 11:53:00
6:13 AM,-34.6,-41.8,68,29.98,10.0,Calm,Calm,-,N/A,,Clear,0,2013-02-04 12:13:00
6:33 AM,-34.6,-41.8,68,29.97,10.0,Calm,Calm,-,N/A,,Clear,0,2013-02-04 12:33:00
6:53 AM,-34.6,-41.8,68,29.97,10.0,Calm,Calm,-,N/A,,Clear,0,2013-02-04 12:53:00
7:13 AM,-34.6,-41.8,68,29.97,10.0,Calm,Calm,-,N/A,,Clear,0,2013-02-04 13:13:00
7:33 AM,-34.6,-43.6,61,29.97,10.0,Calm,Calm,-,N/A,,Clear,0,2013-02-04 13:33:00
7:53 AM,-34.6,-43.6,61,29.98,10.0,Calm,Calm,-,N/A,,Clear,0,2013-02-04 13:53:00
8:13 AM,-32.8,-41.8,62,29.98,10.0,Calm,Calm,-,N/A,,Clear,0,2013-02-04 14:13:00
8:33 AM,-32.8,-41.8,62,29.97,10.0,Calm,Calm,-,N/A,,Clear,0,2013-02-04 14:33:00
8:53 AM,-27.4,-36.4,62,29.97,10.0,Calm,Calm,-,N/A,,Clear,0,2013-02-04 14:53:00
9:13 AM,-25.6,-34.6,63,29.97,10.0,Calm,Calm,-,N/A,,Clear,0,2013-02-04 15:13:00
9:33 AM,-20.2,-27.4,69,29.97,10.0,SW,3.5,-,N/A,,Clear,230,2013-02-04 15:33:00
9:53 AM,-14.8,-20.2,77,29.95,10.0,Calm,Calm,-,N/A,,Scattered Clouds,0,2013-02-04 15:53:00
10:13 AM,-9.4,-16.6,71,29.96,10.0,Calm,Calm,-,N/A,,Mostly Cloudy,0,2013-02-04 16:13:00
10:33 AM,-7.6,-14.8,71,29.95,10.0,Calm,Calm,-,N/A,,Overcast,0,2013-02-04 16:33:00
10:53 AM,-4.0,-11.2,71,29.95,10.0,Calm,Calm,-,N/A,,Mostly Cloudy,0,2013-02-04 16:53:00
11:13 AM,-0.4,-9.4,66,29.94,10.0,South,4.6,-,N/A,,Mostly Cloudy,180,2013-02-04 17:13:00
11:33 AM,-0.4,-7.6,72,29.93,10.0,SSW,8.1,-,N/A,,Mostly Cloudy,200,2013-02-04 17:33:00
11:53 AM,1.4,-7.6,66,29.93,10.0,SSW,6.9,-,N/A,,Overcast,200,2013-02-04 17:53:00
12:33 PM,1.4,-7.6,66,29.90,10.0,South,6.9,-,N/A,,Scattered Clouds,170,2013-02-04 18:33:00
12:53 PM,3.2,-7.6,61,29.89,10.0,South,4.6,-,N/A,,Mostly Cloudy,170,2013-02-04 18:53:00
1:13 PM,3.2,-5.8,66,29.90,10.0,Calm,Calm,-,N/A,,Scattered Clouds,0,2013-02-04 19:13:00
1:33 PM,3.2,-5.8,66,29.89,10.0,SW,6.9,-,N/A,,Mostly Cloudy,220,2013-02-04 19:33:00
1:53 PM,5.0,-5.8,61,29.88,10.0,South,5.8,-,N/A,,Overcast,170,2013-02-04 19:53:00
2:13 PM,5.0,-5.8,61,29.87,10.0,SSW,8.1,-,N/A,,Overcast,210,2013-02-04 20:13:00
2:33 PM,5.0,-5.8,61,29.86,10.0,SSW,9.2,-,N/A,,Overcast,210,2013-02-04 20:33:00
2:53 PM,6.8,-5.8,56,29.85,10.0,SSW,9.2,-,N/A,,Overcast,200,2013-02-04 20:53:00
3:13 PM,6.8,-5.8,56,29.84,10.0,South,8.1,-,N/A,,Overcast,190,2013-02-04 21:13:00
3:33 PM,6.8,-5.8,56,29.83,10.0,South,9.2,-,N/A,,Overcast,180,2013-02-04 21:33:00
3:53 PM,6.8,-4.0,61,29.82,10.0,SSW,6.9,-,N/A,,Overcast,200,2013-02-04 21:53:00
4:13 PM,6.8,-4.0,61,29.80,10.0,South,8.1,-,N/A,,Overcast,180,2013-02-04 22:13:00
4:33 PM,6.8,-5.8,56,29.79,10.0,South,6.9,-,N/A,,Mostly Cloudy,180,2013-02-04 22:33:00
4:54 PM,3.2,-5.8,66,29.78,10.0,South,5.8,-,N/A,,Scattered Clouds,190,2013-02-04 22:54:00
5:13 PM,5.0,-4.0,66,29.77,10.0,South,6.9,-,N/A,,Mostly Cloudy,170,2013-02-04 23:13:00
5:33 PM,5.0,-5.8,61,29.77,10.0,South,6.9,-,N/A,,Overcast,180,2013-02-04 23:33:00
5:53 PM,5.0,-5.8,61,29.76,10.0,SSE,5.8,-,N/A,,Overcast,160,2013-02-04 23:53:00
6:13 PM,5.0,-5.8,61,29.75,10.0,SE,3.5,-,N/A,,Overcast,140,2013-02-05 00:13:00
6:33 PM,5.0,-5.8,61,29.74,10.0,SE,4.6,-,N/A,,Overcast,140,2013-02-05 00:33:00
6:53 PM,5.0,-5.8,61,29.72,10.0,SSE,4.6,-,N/A,,Overcast,150,2013-02-05 00:53:00
7:13 PM,6.8,-4.0,61,29.71,10.0,SE,5.8,-,N/A,,Overcast,140,2013-02-05 01:13:00
7:33 PM,6.8,-4.0,61,29.70,5.0,SSE,8.1,-,N/A,Snow,Light Snow,160,2013-02-05 01:33:00
7:53 PM,6.8,-2.2,67,29.70,3.0,South,6.9,-,N/A,Snow,Light Snow,170,2013-02-05 01:53:00
8:13 PM,6.8,-0.4,72,29.69,1.5,SSE,8.1,-,N/A,Snow,Light Snow,160,2013-02-05 02:13:00
8:33 PM,6.8,1.4,79,29.67,1.0,SSE,6.9,-,N/A,Snow,Snow,160,2013-02-05 02:33:00
8:53 PM,6.8,1.4,79,29.66,1.0,SSE,9.2,-,N/A,Snow,Snow,160,2013-02-05 02:53:00
9:13 PM,6.8,1.4,79,29.64,0.8,SSE,8.1,-,N/A,Snow,Snow,160,2013-02-05 03:13:00
9:33 PM,6.8,1.4,79,29.62,0.8,SSE,6.9,-,0.01,Snow,Snow,160,2013-02-05 03:33:00
9:53 PM,6.8,1.4,79,29.60,1.5,SSE,6.9,-,N/A,Snow,Light Snow,150,2013-02-05 03:53:00
10:13 PM,6.8,1.4,79,29.58,2.0,SSE,8.1,16.1,N/A,Snow,Light Snow,160,2013-02-05 04:13:00
10:33 PM,8.6,3.2,79,29.58,1.0,South,8.1,-,0.01,Snow,Snow,170,2013-02-05 04:33:00
10:53 PM,8.6,3.2,79,29.58,1.5,South,8.1,-,N/A,Snow,Light Snow,180,2013-02-05 04:53:00
11:13 PM,8.6,3.2,79,29.58,2.5,South,6.9,-,N/A,Snow,Light Snow,180,2013-02-05 05:13:00
11:33 PM,8.6,3.2,79,29.58,7.0,South,5.8,-,N/A,Snow,Light Snow,170,2013-02-05 05:33:00
11:53 PM,8.6,5.0,85,29.57,7.0,South,6.9,-,N/A,Snow,Light Snow,180,2013-02-05 05:53:00